Tracking 25963 objects as of 12-Aug-2022
HD Live streaming from Space Station
objects crossing your sky now

ARIANE 5 DEB

Track ARIANE 5 DEB now!


NORAD ID: 43382
Int'l Code: 2008-030E
Perigee: 311.2 km
Apogee: 33,126.6 km
Inclination: 1.9 °
Period: 582.0 minutes
Semi major axis: 23089 km
RCS: Unknown
Launch date: June 12, 2008
Source: France (FR)
Launch site: FRENCH GUIANA (FRGUI)

Note: This is SATELLITE DEBRIS
aabbcc
Your satellite tracking list
Your tracking list is empty




NASA's NSSDC Master Catalog

Two Line Element Set (TLE):
1 43382U 08030E   22222.81295455  .00000650  00000-0  84578-3 0  9996
2 43382   1.8810 303.0473 7105996  39.6255 354.8107  2.47439678 77975
Source of the keplerian elements: AFSPC